Location: Unspecified
(58.9933°N, 5.6375°E)
Time: 12:08:54
(UTC+02:00)

Cosmos 1674 - Visible Passes

Search period start: 21 August 2014 00:00
Search period end: 31 August 2014 00:00
Orbit: 514 x 544 km, 82.5° (Epoch: 20 August)

Date Brightness Start Highest point End Pass type
(mag) Time Alt. Az. Time Alt. Az. Time Alt. Az.
21 Aug 3.6 01:15:19 10° N 01:18:58 40° ENE 01:20:18 29° ESE visible
21 Aug 3.8 02:51:32 10° NNW 02:54:52 29° W 02:55:34 27° WSW visible
22 Aug 3.7 01:04:31 10° N 01:08:08 38° ENE 01:09:24 29° ESE visible
22 Aug 3.8 02:40:41 10° NNW 02:44:05 30° W 02:44:40 29° WSW visible
23 Aug 3.8 00:53:43 10° N 00:57:18 36° ENE 00:58:30 29° ESE visible
23 Aug 3.7 02:29:50 10° NNW 02:33:17 32° W 02:33:46 31° WSW visible
24 Aug 3.9 00:42:55 10° N 00:46:28 34° ENE 00:47:36 28° ESE visible
24 Aug 3.6 02:18:59 10° NNW 02:22:29 34° W 02:22:53 33° WSW visible
25 Aug 3.9 00:32:07 10° N 00:35:38 32° ENE 00:36:43 27° E visible
25 Aug 3.5 02:08:08 10° NNW 02:11:41 36° W 02:11:59 35° WSW visible
26 Aug 4.0 00:21:19 10° N 00:24:47 31° ENE 00:25:50 26° E visible
26 Aug 3.4 01:57:17 10° NNW 02:00:52 38° W 02:01:07 38° WSW visible
27 Aug 4.0 00:10:31 10° N 00:13:56 29° ENE 00:14:58 25° E visible
27 Aug 3.4 01:46:26 10° NNW 01:50:03 41° W 01:50:15 40° WSW visible
27 Aug 4.1 23:59:43 10° N 00:03:04 28° ENE 00:04:06 24° E visible
28 Aug 3.3 01:35:34 10° NNW 01:39:14 43° W 01:39:23 43° WSW visible
28 Aug 4.1 23:48:54 10° N 23:52:13 27° ENE 23:53:15 23° E visible
29 Aug 3.2 01:24:43 10° NNW 01:28:25 46° W 01:28:31 46° WSW visible
29 Aug 4.2 23:38:06 10° N 23:41:21 25° ENE 23:42:24 22° E visible
30 Aug 3.1 01:13:51 10° NNW 01:17:35 49° W 01:17:40 49° W visible
30 Aug 4.3 23:27:17 10° N 23:30:29 24° ENE 23:31:33 21° E visible
